Data supplied by UK-AIR on 9/6/2008
All Data GMT hour ending 
Status: R =Ratified P=Provisional,P*=As supplied
,,Billingham,,,,,,,,,,,,,,,,,,,,,,,
Date,time,"Nitric oxide",status,unit,"Nitrogen dioxide",status,unit,"Nitrogen oxides as nitrogen dioxide",status,unit
 
01-01-2007,01:00,0,R,ugm-3,6,R,ugm-3,6,R,ugm-3
01-01-2007,02:00,0,R,ugm-3,6,R,ugm-3,6,R,ugm-3
01-01-2007,03:00,0,R,ugm-3,4,R,ugm-3,4,R,ugm-3
01-01-2007,04:00,0,R,ugm-3,4,R,ugm-3,4,R,ugm-3
01-01-2007,05:00,0,R,ugm-3,2,R,ugm-3,2,R,ugm-3
01-01-2007,06:00,0,R,ugm-3,4,R,ugm-3,4,R,ugm-3
01-01-2007,07:00,0,R,ugm-3,4,R,ugm-3,4,R,ugm-3
01-01-2007,08:00,0,R,ugm-3,6,R,ugm-3,6,R,ugm-3
01-01-2007,09:00,0,R,ugm-3,4,R,ugm-3,4,R,ugm-3
01-01-2007,10:00,1,R,ugm-3,6,R,ugm-3,8,R,ugm-3
01-01-2007,11:00,1,R,ugm-3,4,R,ugm-3,6,R,ugm-3
01-01-2007,12:00,1,R,ugm-3,6,R,ugm-3,8,R,ugm-3
01-01-2007,13:00,1,R,ugm-3,8,R,ugm-3,10,R,ugm-3
01-01-2007,14:00,1,R,ugm-3,8,R,ugm-3,10,R,ugm-3
01-01-2007,15:00,1,R,ugm-3,8,R,ugm-3,10,R,ugm-3
01-01-2007,16:00,1,R,ugm-3,10,R,ugm-3,11,R,ugm-3
01-01-2007,17:00,1,R,ugm-3,13,R,ugm-3,15,R,ugm-3
01-01-2007,18:00,1,R,ugm-3,17,R,ugm-3,19,R,ugm-3
01-01-2007,19:00,1,R,ugm-3,19,R,ugm-3,21,R,ugm-3
01-01-2007,20:00,3,R,ugm-3,19,R,ugm-3,23,R,ugm-3
01-01-2007,21:00,0,R,ugm-3,10,R,ugm-3,10,R,ugm-3
01-01-2007,22:00,1,R,ugm-3,8,R,ugm-3,10,R,ugm-3
01-01-2007,23:00,0,R,ugm-3,6,R,ugm-3,6,R,ugm-3
01-01-2007,24:00,0,R,ugm-3,8,R,ugm-3,8,R,ugm-3
02-01-2007,01:00,0,R,ugm-3,6,R,ugm-3,6,R,ugm-3
02-01-2007,02:00,0,R,ugm-3,4,R,ugm-3,4,R,ugm-3
02-01-2007,03:00,0,R,ugm-3,6,R,ugm-3,6,R,ugm-3
02-01-2007,04:00,0,R,ugm-3,4,R,ugm-3,4,R,ugm-3
02-01-2007,05:00,0,R,ugm-3,2,R,ugm-3,2,R,ugm-3
02-01-2007,06:00,1,R,ugm-3,6,R,ugm-3,8,R,ugm-3
02-01-2007,07:00,,,,,,,,,
02-01-2007,08:00,16,R,ugm-3,44,R,ugm-3,69,R,ugm-3
02-01-2007,09:00,90,R,ugm-3,111,R,ugm-3,248,R,ugm-3
02-01-2007,10:00,9,R,ugm-3,27,R,ugm-3,40,R,ugm-3
02-01-2007,11:00,20,R,ugm-3,38,R,ugm-3,69,R,ugm-3
02-01-2007,12:00,,,,,,,,,
02-01-2007,13:00,,,,,,,,,
02-01-2007,14:00,,,,,,,,,
02-01-2007,15:00,,,,,,,,,
02-01-2007,16:00,,,,,,,,,
02-01-2007,17:00,,,,,,,,,
02-01-2007,18:00,,,,,,,,,
02-01-2007,19:00,,,,,,,,,
02-01-2007,20:00,,,,,,,,,
02-01-2007,21:00,,,,,,,,,
02-01-2007,22:00,,,,,,,,,
02-01-2007,23:00,,,,,,,,,
02-01-2007,24:00,,,,,,,,,
03-01-2007,01:00,,,,,,,,,
03-01-2007,02:00,,,,,,,,,
03-01-2007,03:00,,,,,,,,,
03-01-2007,04:00,,,,,,,,,
03-01-2007,05:00,,,,,,,,,
03-01-2007,06:00,,,,,,,,,
03-01-2007,07:00,,,,,,,,,
03-01-2007,08:00,,,,,,,,,
03-01-2007,09:00,,,,,,,,,
03-01-2007,10:00,,,,,,,,,
03-01-2007,11:00,,,,,,,,,
03-01-2007,12:00,16,R,ugm-3,55,R,ugm-3,80,R,ugm-3
03-01-2007,13:00,6,R,ugm-3,17,R,ugm-3,27,R,ugm-3
03-01-2007,14:00,5,R,ugm-3,17,R,ugm-3,25,R,ugm-3
03-01-2007,15:00,11,R,ugm-3,27,R,ugm-3,44,R,ugm-3
03-01-2007,16:00,10,R,ugm-3,29,R,ugm-3,44,R,ugm-3
03-01-2007,17:00,1,R,ugm-3,36,R,ugm-3,38,R,ugm-3
03-01-2007,18:00,0,R,ugm-3,15,R,ugm-3,15,R,ugm-3
03-01-2007,19:00,0,R,ugm-3,11,R,ugm-3,11,R,ugm-3
03-01-2007,20:00,0,R,ugm-3,10,R,ugm-3,10,R,ugm-3
03-01-2007,21:00,0,R,ugm-3,8,R,ugm-3,8,R,ugm-3
03-01-2007,22:00,0,R,ugm-3,6,R,ugm-3,6,R,ugm-3
03-01-2007,23:00,0,R,ugm-3,6,R,ugm-3,6,R,ugm-3
03-01-2007,24:00,0,R,ugm-3,6,R,ugm-3,6,R,ugm-3
04-01-2007,01:00,0,R,ugm-3,4,R,ugm-3,4,R,ugm-3
04-01-2007,02:00,0,R,ugm-3,2,R,ugm-3,2,R,ugm-3
04-01-2007,03:00,0,R,ugm-3,2,R,ugm-3,2,R,ugm-3
04-01-2007,04:00,0,R,ugm-3,2,R,ugm-3,2,R,ugm-3
04-01-2007,05:00,0,R,ugm-3,2,R,ugm-3,2,R,ugm-3
04-01-2007,06:00,0,R,ugm-3,6,R,ugm-3,6,R,ugm-3
04-01-2007,07:00,4,R,ugm-3,10,R,ugm-3,15,R,ugm-3
04-01-2007,08:00,25,R,ugm-3,36,R,ugm-3,74,R,ugm-3
04-01-2007,09:00,23,R,ugm-3,27,R,ugm-3,61,R,ugm-3
04-01-2007,10:00,10,R,ugm-3,23,R,ugm-3,38,R,ugm-3
04-01-2007,11:00,20,R,ugm-3,29,R,ugm-3,59,R,ugm-3
04-01-2007,12:00,50,R,ugm-3,50,R,ugm-3,126,R,ugm-3
04-01-2007,13:00,23,R,ugm-3,32,R,ugm-3,67,R,ugm-3
04-01-2007,14:00,15,R,ugm-3,19,R,ugm-3,42,R,ugm-3
04-01-2007,15:00,21,R,ugm-3,32,R,ugm-3,65,R,ugm-3
04-01-2007,16:00,34,R,ugm-3,46,R,ugm-3,97,R,ugm-3
04-01-2007,17:00,65,R,ugm-3,59,R,ugm-3,159,R,ugm-3
04-01-2007,18:00,24,R,ugm-3,36,R,ugm-3,73,R,ugm-3
04-01-2007,19:00,3,R,ugm-3,17,R,ugm-3,21,R,ugm-3
04-01-2007,20:00,1,R,ugm-3,15,R,ugm-3,17,R,ugm-3
04-01-2007,21:00,0,R,ugm-3,10,R,ugm-3,10,R,ugm-3
04-01-2007,22:00,0,R,ugm-3,13,R,ugm-3,13,R,ugm-3
04-01-2007,23:00,0,R,ugm-3,15,R,ugm-3,15,R,ugm-3
04-01-2007,24:00,0,R,ugm-3,8,R,ugm-3,8,R,ugm-3
05-01-2007,01:00,0,R,ugm-3,11,R,ugm-3,11,R,ugm-3
05-01-2007,02:00,0,R,ugm-3,8,R,ugm-3,8,R,ugm-3
05-01-2007,03:00,0,R,ugm-3,6,R,ugm-3,6,R,ugm-3
05-01-2007,04:00,0,R,ugm-3,6,R,ugm-3,6,R,ugm-3
05-01-2007,05:00,0,R,ugm-3,6,R,ugm-3,6,R,ugm-3
05-01-2007,06:00,0,R,ugm-3,6,R,ugm-3,6,R,ugm-3
05-01-2007,07:00,0,R,ugm-3,11,R,ugm-3,11,R,ugm-3
05-01-2007,08:00,14,R,ugm-3,48,R,ugm-3,69,R,ugm-3
05-01-2007,09:00,38,R,ugm-3,59,R,ugm-3,117,R,ugm-3
05-01-2007,10:00,5,R,ugm-3,25,R,ugm-3,32,R,ugm-3
05-01-2007,11:00,29,R,ugm-3,27,R,ugm-3,71,R,ugm-3
05-01-2007,12:00,24,R,ugm-3,34,R,ugm-3,71,R,ugm-3
05-01-2007,13:00,65,R,ugm-3,63,R,ugm-3,162,R,ugm-3
05-01-2007,14:00,91,R,ugm-3,80,R,ugm-3,220,R,ugm-3
05-01-2007,15:00,59,R,ugm-3,67,R,ugm-3,157,R,ugm-3
05-01-2007,16:00,39,R,ugm-3,71,R,ugm-3,130,R,ugm-3
05-01-2007,17:00,56,R,ugm-3,76,R,ugm-3,162,R,ugm-3
05-01-2007,18:00,36,R,ugm-3,50,R,ugm-3,105,R,ugm-3
05-01-2007,19:00,4,R,ugm-3,36,R,ugm-3,42,R,ugm-3
05-01-2007,20:00,5,R,ugm-3,36,R,ugm-3,44,R,ugm-3
05-01-2007,21:00,5,R,ugm-3,32,R,ugm-3,40,R,ugm-3
05-01-2007,22:00,4,R,ugm-3,36,R,ugm-3,42,R,ugm-3
05-01-2007,23:00,1,R,ugm-3,27,R,ugm-3,29,R,ugm-3
05-01-2007,24:00,0,R,ugm-3,10,R,ugm-3,10,R,ugm-3
06-01-2007,01:00,0,R,ugm-3,8,R,ugm-3,8,R,ugm-3
06-01-2007,02:00,0,R,ugm-3,10,R,ugm-3,10,R,ugm-3
06-01-2007,03:00,0,R,ugm-3,8,R,ugm-3,8,R,ugm-3
06-01-2007,04:00,0,R,ugm-3,6,R,ugm-3,6,R,ugm-3
06-01-2007,05:00,0,R,ugm-3,6,R,ugm-3,6,R,ugm-3
06-01-2007,06:00,0,R,ugm-3,10,R,ugm-3,10,R,ugm-3
06-01-2007,07:00,0,R,ugm-3,25,R,ugm-3,25,R,ugm-3
06-01-2007,08:00,4,R,ugm-3,21,R,ugm-3,27,R,ugm-3
06-01-2007,09:00,11,R,ugm-3,21,R,ugm-3,38,R,ugm-3
06-01-2007,10:00,3,R,ugm-3,19,R,ugm-3,23,R,ugm-3
06-01-2007,11:00,11,R,ugm-3,25,R,ugm-3,42,R,ugm-3
06-01-2007,12:00,49,R,ugm-3,48,R,ugm-3,122,R,ugm-3
06-01-2007,13:00,20,R,ugm-3,29,R,ugm-3,59,R,ugm-3
06-01-2007,14:00,4,R,ugm-3,27,R,ugm-3,32,R,ugm-3
06-01-2007,15:00,5,R,ugm-3,21,R,ugm-3,29,R,ugm-3
06-01-2007,16:00,5,R,ugm-3,29,R,ugm-3,36,R,ugm-3
06-01-2007,17:00,4,R,ugm-3,32,R,ugm-3,38,R,ugm-3
06-01-2007,18:00,5,R,ugm-3,32,R,ugm-3,40,R,ugm-3
06-01-2007,19:00,4,R,ugm-3,34,R,ugm-3,40,R,ugm-3
06-01-2007,20:00,3,R,ugm-3,23,R,ugm-3,27,R,ugm-3
06-01-2007,21:00,1,R,ugm-3,15,R,ugm-3,17,R,ugm-3
06-01-2007,22:00,0,R,ugm-3,11,R,ugm-3,11,R,ugm-3
06-01-2007,23:00,0,R,ugm-3,10,R,ugm-3,10,R,ugm-3
06-01-2007,24:00,0,R,ugm-3,8,R,ugm-3,8,R,ugm-3
07-01-2007,01:00,0,R,ugm-3,10,R,ugm-3,10,R,ugm-3
07-01-2007,02:00,0,R,ugm-3,10,R,ugm-3,10,R,ugm-3
07-01-2007,03:00,0,R,ugm-3,8,R,ugm-3,8,R,ugm-3
07-01-2007,04:00,0,R,ugm-3,6,R,ugm-3,6,R,ugm-3
07-01-2007,05:00,0,R,ugm-3,4,R,ugm-3,4,R,ugm-3
07-01-2007,06:00,0,R,ugm-3,4,R,ugm-3,4,R,ugm-3
07-01-2007,07:00,0,R,ugm-3,6,R,ugm-3,6,R,ugm-3
07-01-2007,08:00,0,R,ugm-3,8,R,ugm-3,8,R,ugm-3
07-01-2007,09:00,0,R,ugm-3,8,R,ugm-3,8,R,ugm-3
07-01-2007,10:00,0,R,ugm-3,10,R,ugm-3,10,R,ugm-3
07-01-2007,11:00,0,R,ugm-3,10,R,ugm-3,10,R,ugm-3
07-01-2007,12:00,0,R,ugm-3,10,R,ugm-3,10,R,ugm-3
07-01-2007,13:00,1,R,ugm-3,10,R,ugm-3,11,R,ugm-3
07-01-2007,14:00,1,R,ugm-3,10,R,ugm-3,11,R,ugm-3
07-01-2007,15:00,0,R,ugm-3,13,R,ugm-3,13,R,ugm-3
07-01-2007,16:00,1,R,ugm-3,17,R,ugm-3,19,R,ugm-3
07-01-2007,17:00,1,R,ugm-3,21,R,ugm-3,23,R,ugm-3
07-01-2007,18:00,1,R,ugm-3,21,R,ugm-3,23,R,ugm-3
07-01-2007,19:00,3,R,ugm-3,25,R,ugm-3,29,R,ugm-3
07-01-2007,20:00,0,R,ugm-3,11,R,ugm-3,11,R,ugm-3
07-01-2007,21:00,0,R,ugm-3,10,R,ugm-3,10,R,ugm-3
07-01-2007,22:00,1,R,ugm-3,10,R,ugm-3,11,R,ugm-3
07-01-2007,23:00,0,R,ugm-3,10,R,ugm-3,10,R,ugm-3
07-01-2007,24:00,0,R,ugm-3,8,R,ugm-3,8,R,ugm-3
08-01-2007,01:00,0,R,ugm-3,8,R,ugm-3,8,R,ugm-3
08-01-2007,02:00,0,R,ugm-3,4,R,ugm-3,4,R,ugm-3
08-01-2007,03:00,0,R,ugm-3,6,R,ugm-3,6,R,ugm-3
08-01-2007,04:00,0,R,ugm-3,6,R,ugm-3,6,R,ugm-3
08-01-2007,05:00,0,R,ugm-3,8,R,ugm-3,8,R,ugm-3
08-01-2007,06:00,0,R,ugm-3,11,R,ugm-3,11,R,ugm-3
08-01-2007,07:00,14,R,ugm-3,34,R,ugm-3,55,R,ugm-3
08-01-2007,08:00,36,R,ugm-3,48,R,ugm-3,103,R,ugm-3
08-01-2007,09:00,71,R,ugm-3,65,R,ugm-3,174,R,ugm-3
08-01-2007,10:00,25,R,ugm-3,48,R,ugm-3,86,R,ugm-3
08-01-2007,11:00,16,R,ugm-3,31,R,ugm-3,55,R,ugm-3
08-01-2007,12:00,19,R,ugm-3,50,R,ugm-3,78,R,ugm-3
08-01-2007,13:00,11,R,ugm-3,44,R,ugm-3,61,R,ugm-3
08-01-2007,14:00,13,R,ugm-3,44,R,ugm-3,63,R,ugm-3
08-01-2007,15:00,66,R,ugm-3,92,R,ugm-3,193,R,ugm-3
08-01-2007,16:00,23,R,ugm-3,53,R,ugm-3,88,R,ugm-3
08-01-2007,17:00,3,R,ugm-3,36,R,ugm-3,40,R,ugm-3
08-01-2007,18:00,3,R,ugm-3,34,R,ugm-3,38,R,ugm-3
08-01-2007,19:00,1,R,ugm-3,19,R,ugm-3,21,R,ugm-3
08-01-2007,20:00,0,R,ugm-3,15,R,ugm-3,15,R,ugm-3
08-01-2007,21:00,0,R,ugm-3,13,R,ugm-3,13,R,ugm-3
08-01-2007,22:00,0,R,ugm-3,13,R,ugm-3,13,R,ugm-3
08-01-2007,23:00,0,R,ugm-3,11,R,ugm-3,11,R,ugm-3
08-01-2007,24:00,0,R,ugm-3,8,R,ugm-3,8,R,ugm-3
09-01-2007,01:00,0,R,ugm-3,2,R,ugm-3,2,R,ugm-3
09-01-2007,02:00,0,R,ugm-3,2,R,ugm-3,2,R,ugm-3
09-01-2007,03:00,0,R,ugm-3,0,R,ugm-3,0,R,ugm-3
09-01-2007,04:00,0,R,ugm-3,2,R,ugm-3,2,R,ugm-3
09-01-2007,05:00,0,R,ugm-3,2,R,ugm-3,2,R,ugm-3
09-01-2007,06:00,0,R,ugm-3,4,R,ugm-3,4,R,ugm-3
09-01-2007,07:00,0,R,ugm-3,6,R,ugm-3,6,R,ugm-3
09-01-2007,08:00,23,R,ugm-3,29,R,ugm-3,63,R,ugm-3
09-01-2007,09:00,19,R,ugm-3,36,R,ugm-3,65,R,ugm-3
09-01-2007,10:00,5,R,ugm-3,13,R,ugm-3,21,R,ugm-3
09-01-2007,11:00,5,R,ugm-3,21,R,ugm-3,29,R,ugm-3
09-01-2007,12:00,5,R,ugm-3,11,R,ugm-3,19,R,ugm-3
09-01-2007,13:00,5,R,ugm-3,13,R,ugm-3,21,R,ugm-3
09-01-2007,14:00,8,R,ugm-3,19,R,ugm-3,31,R,ugm-3
09-01-2007,15:00,8,R,ugm-3,17,R,ugm-3,29,R,ugm-3
09-01-2007,16:00,16,R,ugm-3,25,R,ugm-3,50,R,ugm-3
09-01-2007,17:00,6,R,ugm-3,29,R,ugm-3,38,R,ugm-3
09-01-2007,18:00,5,R,ugm-3,23,R,ugm-3,31,R,ugm-3
09-01-2007,19:00,3,R,ugm-3,19,R,ugm-3,23,R,ugm-3
09-01-2007,20:00,0,R,ugm-3,15,R,ugm-3,15,R,ugm-3
09-01-2007,21:00,1,R,ugm-3,17,R,ugm-3,19,R,ugm-3
09-01-2007,22:00,1,R,ugm-3,19,R,ugm-3,21,R,ugm-3
09-01-2007,23:00,0,R,ugm-3,15,R,ugm-3,15,R,ugm-3
09-01-2007,24:00,0,R,ugm-3,10,R,ugm-3,10,R,ugm-3
10-01-2007,01:00,0,R,ugm-3,10,R,ugm-3,10,R,ugm-3
10-01-2007,02:00,0,R,ugm-3,15,R,ugm-3,15,R,ugm-3
10-01-2007,03:00,0,R,ugm-3,10,R,ugm-3,10,R,ugm-3
10-01-2007,04:00,0,R,ugm-3,10,R,ugm-3,10,R,ugm-3
10-01-2007,05:00,0,R,ugm-3,10,R,ugm-3,10,R,ugm-3
10-01-2007,06:00,6,R,ugm-3,11,R,ugm-3,21,R,ugm-3
10-01-2007,07:00,35,R,ugm-3,32,R,ugm-3,86,R,ugm-3
10-01-2007,08:00,88,R,ugm-3,78,R,ugm-3,212,R,ugm-3
10-01-2007,09:00,60,R,ugm-3,82,R,ugm-3,174,R,ugm-3
10-01-2007,10:00,20,R,ugm-3,46,R,ugm-3,76,R,ugm-3
10-01-2007,11:00,30,R,ugm-3,59,R,ugm-3,105,R,ugm-3
10-01-2007,12:00,28,R,ugm-3,32,R,ugm-3,74,R,ugm-3
10-01-2007,13:00,19,R,ugm-3,23,R,ugm-3,52,R,ugm-3
10-01-2007,14:00,29,R,ugm-3,36,R,ugm-3,80,R,ugm-3
10-01-2007,15:00,29,R,ugm-3,46,R,ugm-3,90,R,ugm-3
10-01-2007,16:00,45,R,ugm-3,65,R,ugm-3,134,R,ugm-3
10-01-2007,17:00,25,R,ugm-3,44,R,ugm-3,82,R,ugm-3
10-01-2007,18:00,14,R,ugm-3,40,R,ugm-3,61,R,ugm-3
10-01-2007,19:00,10,R,ugm-3,42,R,ugm-3,57,R,ugm-3
10-01-2007,20:00,5,R,ugm-3,32,R,ugm-3,40,R,ugm-3
10-01-2007,21:00,4,R,ugm-3,38,R,ugm-3,44,R,ugm-3
10-01-2007,22:00,0,R,ugm-3,17,R,ugm-3,17,R,ugm-3
10-01-2007,23:00,0,R,ugm-3,11,R,ugm-3,11,R,ugm-3
10-01-2007,24:00,0,R,ugm-3,19,R,ugm-3,19,R,ugm-3
11-01-2007,01:00,0,R,ugm-3,11,R,ugm-3,11,R,ugm-3
11-01-2007,02:00,0,R,ugm-3,6,R,ugm-3,6,R,ugm-3
11-01-2007,03:00,0,R,ugm-3,8,R,ugm-3,8,R,ugm-3
11-01-2007,04:00,0,R,ugm-3,6,R,ugm-3,6,R,ugm-3
11-01-2007,05:00,0,R,ugm-3,6,R,ugm-3,6,R,ugm-3
11-01-2007,06:00,1,R,ugm-3,10,R,ugm-3,11,R,ugm-3
11-01-2007,07:00,3,R,ugm-3,15,R,ugm-3,19,R,ugm-3
11-01-2007,08:00,33,R,ugm-3,46,R,ugm-3,96,R,ugm-3
11-01-2007,09:00,19,R,ugm-3,38,R,ugm-3,67,R,ugm-3
11-01-2007,10:00,10,R,ugm-3,29,R,ugm-3,44,R,ugm-3
11-01-2007,11:00,9,R,ugm-3,23,R,ugm-3,36,R,ugm-3
11-01-2007,12:00,13,R,ugm-3,29,R,ugm-3,48,R,ugm-3
11-01-2007,13:00,10,R,ugm-3,25,R,ugm-3,40,R,ugm-3
11-01-2007,14:00,51,R,ugm-3,76,R,ugm-3,155,R,ugm-3
11-01-2007,15:00,18,R,ugm-3,27,R,ugm-3,53,R,ugm-3
11-01-2007,16:00,31,R,ugm-3,48,R,ugm-3,96,R,ugm-3
11-01-2007,17:00,10,R,ugm-3,23,R,ugm-3,38,R,ugm-3
11-01-2007,18:00,5,R,ugm-3,15,R,ugm-3,23,R,ugm-3
11-01-2007,19:00,1,R,ugm-3,10,R,ugm-3,11,R,ugm-3
11-01-2007,20:00,0,R,ugm-3,8,R,ugm-3,8,R,ugm-3
11-01-2007,21:00,0,R,ugm-3,10,R,ugm-3,10,R,ugm-3
11-01-2007,22:00,1,R,ugm-3,8,R,ugm-3,10,R,ugm-3
11-01-2007,23:00,1,R,ugm-3,8,R,ugm-3,10,R,ugm-3
11-01-2007,24:00,0,R,ugm-3,6,R,ugm-3,6,R,ugm-3
12-01-2007,01:00,0,R,ugm-3,6,R,ugm-3,6,R,ugm-3
12-01-2007,02:00,0,R,ugm-3,6,R,ugm-3,6,R,ugm-3
12-01-2007,03:00,0,R,ugm-3,10,R,ugm-3,10,R,ugm-3
12-01-2007,04:00,0,R,ugm-3,8,R,ugm-3,8,R,ugm-3
12-01-2007,05:00,0,R,ugm-3,8,R,ugm-3,8,R,ugm-3
12-01-2007,06:00,0,R,ugm-3,8,R,ugm-3,8,R,ugm-3
12-01-2007,07:00,0,R,ugm-3,11,R,ugm-3,11,R,ugm-3
12-01-2007,08:00,25,R,ugm-3,36,R,ugm-3,74,R,ugm-3
12-01-2007,09:00,34,R,ugm-3,44,R,ugm-3,96,R,ugm-3
12-01-2007,10:00,5,R,ugm-3,21,R,ugm-3,29,R,ugm-3
12-01-2007,11:00,6,R,ugm-3,15,R,ugm-3,25,R,ugm-3
12-01-2007,12:00,5,R,ugm-3,13,R,ugm-3,21,R,ugm-3
12-01-2007,13:00,3,R,ugm-3,15,R,ugm-3,19,R,ugm-3
12-01-2007,14:00,15,R,ugm-3,21,R,ugm-3,44,R,ugm-3
12-01-2007,15:00,13,R,ugm-3,23,R,ugm-3,42,R,ugm-3
12-01-2007,16:00,14,R,ugm-3,29,R,ugm-3,50,R,ugm-3
12-01-2007,17:00,3,R,ugm-3,15,R,ugm-3,19,R,ugm-3
12-01-2007,18:00,4,R,ugm-3,13,R,ugm-3,19,R,ugm-3
12-01-2007,19:00,1,R,ugm-3,13,R,ugm-3,15,R,ugm-3
12-01-2007,20:00,1,R,ugm-3,11,R,ugm-3,13,R,ugm-3
12-01-2007,21:00,0,R,ugm-3,11,R,ugm-3,11,R,ugm-3
12-01-2007,22:00,1,R,ugm-3,8,R,ugm-3,10,R,ugm-3
12-01-2007,23:00,0,R,ugm-3,8,R,ugm-3,8,R,ugm-3
12-01-2007,24:00,0,R,ugm-3,6,R,ugm-3,6,R,ugm-3
13-01-2007,01:00,0,R,ugm-3,6,R,ugm-3,6,R,ugm-3
13-01-2007,02:00,0,R,ugm-3,2,R,ugm-3,2,R,ugm-3
13-01-2007,03:00,0,R,ugm-3,6,R,ugm-3,6,R,ugm-3
13-01-2007,04:00,0,R,ugm-3,6,R,ugm-3,6,R,ugm-3
13-01-2007,05:00,1,R,ugm-3,11,R,ugm-3,13,R,ugm-3
13-01-2007,06:00,0,R,ugm-3,11,R,ugm-3,11,R,ugm-3
13-01-2007,07:00,0,R,ugm-3,13,R,ugm-3,13,R,ugm-3
13-01-2007,08:00,0,R,ugm-3,36,R,ugm-3,36,R,ugm-3
13-01-2007,09:00,0,R,ugm-3,19,R,ugm-3,19,R,ugm-3
13-01-2007,10:00,0,R,ugm-3,17,R,ugm-3,17,R,ugm-3
13-01-2007,11:00,1,R,ugm-3,19,R,ugm-3,21,R,ugm-3
13-01-2007,12:00,0,R,ugm-3,13,R,ugm-3,13,R,ugm-3
13-01-2007,13:00,1,R,ugm-3,11,R,ugm-3,13,R,ugm-3
13-01-2007,14:00,0,R,ugm-3,10,R,ugm-3,10,R,ugm-3
13-01-2007,15:00,0,R,ugm-3,10,R,ugm-3,10,R,ugm-3
13-01-2007,16:00,0,R,ugm-3,11,R,ugm-3,11,R,ugm-3
13-01-2007,17:00,0,R,ugm-3,11,R,ugm-3,11,R,ugm-3
13-01-2007,18:00,0,R,ugm-3,11,R,ugm-3,11,R,ugm-3
13-01-2007,19:00,0,R,ugm-3,10,R,ugm-3,10,R,ugm-3
13-01-2007,20:00,0,R,ugm-3,8,R,ugm-3,8,R,ugm-3
13-01-2007,21:00,0,R,ugm-3,8,R,ugm-3,8,R,ugm-3
13-01-2007,22:00,0,R,ugm-3,8,R,ugm-3,8,R,ugm-3
13-01-2007,23:00,0,R,ugm-3,8,R,ugm-3,8,R,ugm-3
13-01-2007,24:00,0,R,ugm-3,6,R,ugm-3,6,R,ugm-3
14-01-2007,01:00,0,R,ugm-3,6,R,ugm-3,6,R,ugm-3
14-01-2007,02:00,0,R,ugm-3,6,R,ugm-3,6,R,ugm-3
14-01-2007,03:00,0,R,ugm-3,6,R,ugm-3,6,R,ugm-3
14-01-2007,04:00,0,R,ugm-3,6,R,ugm-3,6,R,ugm-3
14-01-2007,05:00,0,R,ugm-3,4,R,ugm-3,4,R,ugm-3
14-01-2007,06:00,0,R,ugm-3,8,R,ugm-3,8,R,ugm-3
14-01-2007,07:00,0,R,ugm-3,8,R,ugm-3,8,R,ugm-3
14-01-2007,08:00,0,R,ugm-3,10,R,ugm-3,10,R,ugm-3
14-01-2007,09:00,0,R,ugm-3,8,R,ugm-3,8,R,ugm-3
14-01-2007,10:00,0,R,ugm-3,10,R,ugm-3,10,R,ugm-3
14-01-2007,11:00,1,R,ugm-3,8,R,ugm-3,10,R,ugm-3
14-01-2007,12:00,1,R,ugm-3,10,R,ugm-3,11,R,ugm-3
14-01-2007,13:00,1,R,ugm-3,10,R,ugm-3,11,R,ugm-3
14-01-2007,14:00,1,R,ugm-3,10,R,ugm-3,11,R,ugm-3
14-01-2007,15:00,1,R,ugm-3,10,R,ugm-3,11,R,ugm-3
14-01-2007,16:00,1,R,ugm-3,10,R,ugm-3,11,R,ugm-3
14-01-2007,17:00,0,R,ugm-3,11,R,ugm-3,11,R,ugm-3
14-01-2007,18:00,0,R,ugm-3,11,R,ugm-3,11,R,ugm-3
14-01-2007,19:00,0,R,ugm-3,15,R,ugm-3,15,R,ugm-3
14-01-2007,20:00,0,R,ugm-3,11,R,ugm-3,11,R,ugm-3
14-01-2007,21:00,0,R,ugm-3,11,R,ugm-3,11,R,ugm-3
14-01-2007,22:00,0,R,ugm-3,11,R,ugm-3,11,R,ugm-3
14-01-2007,23:00,0,R,ugm-3,11,R,ugm-3,11,R,ugm-3
14-01-2007,24:00,1,R,ugm-3,21,R,ugm-3,23,R,ugm-3
15-01-2007,01:00,30,R,ugm-3,61,R,ugm-3,107,R,ugm-3
15-01-2007,02:00,3,R,ugm-3,15,R,ugm-3,19,R,ugm-3
15-01-2007,03:00,0,R,ugm-3,2,R,ugm-3,2,R,ugm-3
15-01-2007,04:00,0,R,ugm-3,2,R,ugm-3,2,R,ugm-3
15-01-2007,05:00,0,R,ugm-3,2,R,ugm-3,2,R,ugm-3
15-01-2007,06:00,0,R,ugm-3,4,R,ugm-3,4,R,ugm-3
15-01-2007,07:00,0,R,ugm-3,8,R,ugm-3,8,R,ugm-3
15-01-2007,08:00,11,R,ugm-3,25,R,ugm-3,42,R,ugm-3
15-01-2007,09:00,16,R,ugm-3,25,R,ugm-3,50,R,ugm-3
15-01-2007,10:00,10,R,ugm-3,31,R,ugm-3,46,R,ugm-3
15-01-2007,11:00,8,R,ugm-3,29,R,ugm-3,40,R,ugm-3
15-01-2007,12:00,9,R,ugm-3,36,R,ugm-3,50,R,ugm-3
15-01-2007,13:00,6,R,ugm-3,15,R,ugm-3,25,R,ugm-3
15-01-2007,14:00,6,R,ugm-3,17,R,ugm-3,27,R,ugm-3
15-01-2007,15:00,10,R,ugm-3,29,R,ugm-3,44,R,ugm-3
15-01-2007,16:00,10,R,ugm-3,32,R,ugm-3,48,R,ugm-3
15-01-2007,17:00,3,R,ugm-3,23,R,ugm-3,27,R,ugm-3
15-01-2007,18:00,1,R,ugm-3,21,R,ugm-3,23,R,ugm-3
15-01-2007,19:00,1,R,ugm-3,17,R,ugm-3,19,R,ugm-3
15-01-2007,20:00,0,R,ugm-3,17,R,ugm-3,17,R,ugm-3
15-01-2007,21:00,0,R,ugm-3,11,R,ugm-3,11,R,ugm-3
15-01-2007,22:00,0,R,ugm-3,6,R,ugm-3,6,R,ugm-3
15-01-2007,23:00,0,R,ugm-3,6,R,ugm-3,6,R,ugm-3
15-01-2007,24:00,0,R,ugm-3,4,R,ugm-3,4,R,ugm-3
16-01-2007,01:00,0,R,ugm-3,4,R,ugm-3,4,R,ugm-3
16-01-2007,02:00,0,R,ugm-3,8,R,ugm-3,8,R,ugm-3
16-01-2007,03:00,0,R,ugm-3,10,R,ugm-3,10,R,ugm-3
16-01-2007,04:00,0,R,ugm-3,6,R,ugm-3,6,R,ugm-3
16-01-2007,05:00,0,R,ugm-3,8,R,ugm-3,8,R,ugm-3
16-01-2007,06:00,5,R,ugm-3,29,R,ugm-3,36,R,ugm-3
16-01-2007,07:00,73,R,ugm-3,71,R,ugm-3,181,R,ugm-3
16-01-2007,08:00,183,R,ugm-3,130,R,ugm-3,409,R,ugm-3
16-01-2007,09:00,159,R,ugm-3,96,R,ugm-3,338,R,ugm-3
16-01-2007,10:00,126,R,ugm-3,86,R,ugm-3,279,R,ugm-3
16-01-2007,11:00,,,,,,,,,
16-01-2007,12:00,66,R,ugm-3,65,R,ugm-3,166,R,ugm-3
16-01-2007,13:00,34,R,ugm-3,52,R,ugm-3,103,R,ugm-3
16-01-2007,14:00,54,R,ugm-3,67,R,ugm-3,149,R,ugm-3
16-01-2007,15:00,35,R,ugm-3,52,R,ugm-3,105,R,ugm-3
16-01-2007,16:00,134,R,ugm-3,96,R,ugm-3,300,R,ugm-3
16-01-2007,17:00,36,R,ugm-3,71,R,ugm-3,126,R,ugm-3
16-01-2007,18:00,20,R,ugm-3,71,R,ugm-3,101,R,ugm-3
16-01-2007,19:00,10,R,ugm-3,55,R,ugm-3,71,R,ugm-3
16-01-2007,20:00,6,R,ugm-3,29,R,ugm-3,38,R,ugm-3
16-01-2007,21:00,1,R,ugm-3,17,R,ugm-3,19,R,ugm-3
16-01-2007,22:00,1,R,ugm-3,17,R,ugm-3,19,R,ugm-3
16-01-2007,23:00,3,R,ugm-3,25,R,ugm-3,29,R,ugm-3
16-01-2007,24:00,9,R,ugm-3,34,R,ugm-3,48,R,ugm-3
17-01-2007,01:00,0,R,ugm-3,25,R,ugm-3,25,R,ugm-3
17-01-2007,02:00,0,R,ugm-3,17,R,ugm-3,17,R,ugm-3
17-01-2007,03:00,0,R,ugm-3,11,R,ugm-3,11,R,ugm-3
17-01-2007,04:00,1,R,ugm-3,13,R,ugm-3,15,R,ugm-3
17-01-2007,05:00,0,R,ugm-3,8,R,ugm-3,8,R,ugm-3
17-01-2007,06:00,1,R,ugm-3,13,R,ugm-3,15,R,ugm-3
17-01-2007,07:00,0,R,ugm-3,11,R,ugm-3,11,R,ugm-3
17-01-2007,08:00,26,R,ugm-3,42,R,ugm-3,82,R,ugm-3
17-01-2007,09:00,21,R,ugm-3,38,R,ugm-3,71,R,ugm-3
17-01-2007,10:00,11,R,ugm-3,31,R,ugm-3,48,R,ugm-3
17-01-2007,11:00,4,R,ugm-3,17,R,ugm-3,23,R,ugm-3
17-01-2007,12:00,6,R,ugm-3,25,R,ugm-3,34,R,ugm-3
17-01-2007,13:00,3,R,ugm-3,11,R,ugm-3,15,R,ugm-3
17-01-2007,14:00,8,R,ugm-3,15,R,ugm-3,27,R,ugm-3
17-01-2007,15:00,5,R,ugm-3,13,R,ugm-3,21,R,ugm-3
17-01-2007,16:00,11,R,ugm-3,23,R,ugm-3,40,R,ugm-3
17-01-2007,17:00,6,R,ugm-3,15,R,ugm-3,25,R,ugm-3
17-01-2007,18:00,9,R,ugm-3,23,R,ugm-3,36,R,ugm-3
17-01-2007,19:00,4,R,ugm-3,21,R,ugm-3,27,R,ugm-3
17-01-2007,20:00,3,R,ugm-3,21,R,ugm-3,25,R,ugm-3
17-01-2007,21:00,1,R,ugm-3,11,R,ugm-3,13,R,ugm-3
17-01-2007,22:00,0,R,ugm-3,11,R,ugm-3,11,R,ugm-3
17-01-2007,23:00,0,R,ugm-3,10,R,ugm-3,10,R,ugm-3
17-01-2007,24:00,0,R,ugm-3,6,R,ugm-3,6,R,ugm-3
18-01-2007,01:00,0,R,ugm-3,4,R,ugm-3,4,R,ugm-3
18-01-2007,02:00,0,R,ugm-3,4,R,ugm-3,4,R,ugm-3
18-01-2007,03:00,0,R,ugm-3,8,R,ugm-3,8,R,ugm-3
18-01-2007,04:00,0,R,ugm-3,10,R,ugm-3,10,R,ugm-3
18-01-2007,05:00,5,R,ugm-3,25,R,ugm-3,32,R,ugm-3
18-01-2007,06:00,4,R,ugm-3,19,R,ugm-3,25,R,ugm-3
18-01-2007,07:00,35,R,ugm-3,32,R,ugm-3,86,R,ugm-3
18-01-2007,08:00,54,R,ugm-3,78,R,ugm-3,160,R,ugm-3
18-01-2007,09:00,39,R,ugm-3,59,R,ugm-3,118,R,ugm-3
18-01-2007,10:00,14,R,ugm-3,27,R,ugm-3,48,R,ugm-3
18-01-2007,11:00,6,R,ugm-3,19,R,ugm-3,29,R,ugm-3
18-01-2007,12:00,9,R,ugm-3,21,R,ugm-3,34,R,ugm-3
18-01-2007,13:00,5,R,ugm-3,13,R,ugm-3,21,R,ugm-3
18-01-2007,14:00,15,R,ugm-3,17,R,ugm-3,40,R,ugm-3
18-01-2007,15:00,36,R,ugm-3,34,R,ugm-3,90,R,ugm-3
18-01-2007,16:00,53,R,ugm-3,40,R,ugm-3,120,R,ugm-3
18-01-2007,17:00,35,R,ugm-3,40,R,ugm-3,94,R,ugm-3
18-01-2007,18:00,13,R,ugm-3,31,R,ugm-3,50,R,ugm-3
18-01-2007,19:00,6,R,ugm-3,25,R,ugm-3,34,R,ugm-3
18-01-2007,20:00,5,R,ugm-3,29,R,ugm-3,36,R,ugm-3
18-01-2007,21:00,3,R,ugm-3,34,R,ugm-3,38,R,ugm-3
18-01-2007,22:00,1,R,ugm-3,23,R,ugm-3,25,R,ugm-3
18-01-2007,23:00,0,R,ugm-3,10,R,ugm-3,10,R,ugm-3
18-01-2007,24:00,0,R,ugm-3,8,R,ugm-3,8,R,ugm-3
19-01-2007,01:00,0,R,ugm-3,6,R,ugm-3,6,R,ugm-3
19-01-2007,02:00,0,R,ugm-3,4,R,ugm-3,4,R,ugm-3
19-01-2007,03:00,0,R,ugm-3,2,R,ugm-3,2,R,ugm-3
19-01-2007,04:00,0,R,ugm-3,4,R,ugm-3,4,R,ugm-3
19-01-2007,05:00,0,R,ugm-3,2,R,ugm-3,2,R,ugm-3
19-01-2007,06:00,1,R,ugm-3,4,R,ugm-3,6,R,ugm-3
19-01-2007,07:00,20,R,ugm-3,17,R,ugm-3,48,R,ugm-3
19-01-2007,08:00,63,R,ugm-3,67,R,ugm-3,162,R,ugm-3
19-01-2007,09:00,26,R,ugm-3,40,R,ugm-3,80,R,ugm-3
19-01-2007,10:00,11,R,ugm-3,25,R,ugm-3,42,R,ugm-3
19-01-2007,11:00,9,R,ugm-3,21,R,ugm-3,34,R,ugm-3
19-01-2007,12:00,45,R,ugm-3,36,R,ugm-3,105,R,ugm-3
19-01-2007,13:00,15,R,ugm-3,25,R,ugm-3,48,R,ugm-3
19-01-2007,14:00,6,R,ugm-3,23,R,ugm-3,32,R,ugm-3
19-01-2007,15:00,13,R,ugm-3,40,R,ugm-3,59,R,ugm-3
19-01-2007,16:00,9,R,ugm-3,27,R,ugm-3,40,R,ugm-3
19-01-2007,17:00,4,R,ugm-3,19,R,ugm-3,25,R,ugm-3
19-01-2007,18:00,3,R,ugm-3,25,R,ugm-3,29,R,ugm-3
19-01-2007,19:00,1,R,ugm-3,32,R,ugm-3,34,R,ugm-3
19-01-2007,20:00,1,R,ugm-3,27,R,ugm-3,29,R,ugm-3
19-01-2007,21:00,0,R,ugm-3,21,R,ugm-3,21,R,ugm-3
19-01-2007,22:00,0,R,ugm-3,13,R,ugm-3,13,R,ugm-3
19-01-2007,23:00,0,R,ugm-3,8,R,ugm-3,8,R,ugm-3
19-01-2007,24:00,0,R,ugm-3,4,R,ugm-3,4,R,ugm-3
20-01-2007,01:00,0,R,ugm-3,2,R,ugm-3,2,R,ugm-3
20-01-2007,02:00,0,R,ugm-3,0,R,ugm-3,0,R,ugm-3
20-01-2007,03:00,0,R,ugm-3,2,R,ugm-3,2,R,ugm-3
20-01-2007,04:00,0,R,ugm-3,0,R,ugm-3,0,R,ugm-3
20-01-2007,05:00,0,R,ugm-3,2,R,ugm-3,2,R,ugm-3
20-01-2007,06:00,0,R,ugm-3,2,R,ugm-3,2,R,ugm-3
20-01-2007,07:00,0,R,ugm-3,4,R,ugm-3,4,R,ugm-3
20-01-2007,08:00,0,R,ugm-3,6,R,ugm-3,6,R,ugm-3
20-01-2007,09:00,1,R,ugm-3,6,R,ugm-3,8,R,ugm-3
20-01-2007,10:00,1,R,ugm-3,8,R,ugm-3,10,R,ugm-3
20-01-2007,11:00,3,R,ugm-3,8,R,ugm-3,11,R,ugm-3
20-01-2007,12:00,4,R,ugm-3,10,R,ugm-3,15,R,ugm-3
20-01-2007,13:00,3,R,ugm-3,8,R,ugm-3,11,R,ugm-3
20-01-2007,14:00,3,R,ugm-3,6,R,ugm-3,10,R,ugm-3
20-01-2007,15:00,1,R,ugm-3,8,R,ugm-3,10,R,ugm-3
20-01-2007,16:00,1,R,ugm-3,10,R,ugm-3,11,R,ugm-3
20-01-2007,17:00,3,R,ugm-3,11,R,ugm-3,15,R,ugm-3
20-01-2007,18:00,3,R,ugm-3,13,R,ugm-3,17,R,ugm-3
20-01-2007,19:00,1,R,ugm-3,13,R,ugm-3,15,R,ugm-3
20-01-2007,20:00,1,R,ugm-3,10,R,ugm-3,11,R,ugm-3
20-01-2007,21:00,0,R,ugm-3,8,R,ugm-3,8,R,ugm-3
20-01-2007,22:00,0,R,ugm-3,8,R,ugm-3,8,R,ugm-3
20-01-2007,23:00,0,R,ugm-3,6,R,ugm-3,6,R,ugm-3
20-01-2007,24:00,0,R,ugm-3,8,R,ugm-3,8,R,ugm-3
21-01-2007,01:00,0,R,ugm-3,11,R,ugm-3,11,R,ugm-3
21-01-2007,02:00,6,R,ugm-3,21,R,ugm-3,31,R,ugm-3
21-01-2007,03:00,0,R,ugm-3,8,R,ugm-3,8,R,ugm-3
21-01-2007,04:00,1,R,ugm-3,6,R,ugm-3,8,R,ugm-3
21-01-2007,05:00,0,R,ugm-3,6,R,ugm-3,6,R,ugm-3
21-01-2007,06:00,0,R,ugm-3,8,R,ugm-3,8,R,ugm-3
21-01-2007,07:00,0,R,ugm-3,13,R,ugm-3,13,R,ugm-3
21-01-2007,08:00,0,R,ugm-3,13,R,ugm-3,13,R,ugm-3
21-01-2007,09:00,0,R,ugm-3,10,R,ugm-3,10,R,ugm-3
21-01-2007,10:00,1,R,ugm-3,13,R,ugm-3,15,R,ugm-3
21-01-2007,11:00,3,R,ugm-3,11,R,ugm-3,15,R,ugm-3
21-01-2007,12:00,3,R,ugm-3,13,R,ugm-3,17,R,ugm-3
21-01-2007,13:00,5,R,ugm-3,11,R,ugm-3,19,R,ugm-3
21-01-2007,14:00,4,R,ugm-3,13,R,ugm-3,19,R,ugm-3
21-01-2007,15:00,4,R,ugm-3,11,R,ugm-3,17,R,ugm-3
21-01-2007,16:00,4,R,ugm-3,13,R,ugm-3,19,R,ugm-3
21-01-2007,17:00,4,R,ugm-3,21,R,ugm-3,27,R,ugm-3
21-01-2007,18:00,6,R,ugm-3,44,R,ugm-3,53,R,ugm-3
21-01-2007,19:00,8,R,ugm-3,42,R,ugm-3,53,R,ugm-3